Time,TemperatureF,DewpointF,PressureIn,WindDirection,WindDirectionDegrees,WindSpeedMPH,WindSpeedGustMPH,Humidity,HourlyPrecipIn,Conditions,Clouds,dailyrainin,SoftwareType,DateUTC
2013-11-01 00:00:00,55.6,28.3,28.41,West,281,6.0,10.0,35,0.00,CLR,,0.00,WeatherDisplay:10.37,2013-11-01 04:00:00,
2013-11-01 00:05:00,55.6,28.3,28.41,West,279,5.0,8.0,35,0.00,CLR,,0.00,WeatherDisplay:10.37,2013-11-01 04:05:00,
2013-11-01 00:10:00,55.2,28.0,28.40,WNW,286,8.0,13.0,35,0.00,CLR,,0.00,WeatherDisplay:10.37,2013-11-01 04:10:00,
2013-11-01 00:15:00,54.7,23.8,28.38,WNW,293,6.0,12.0,30,0.00,CLR,,0.00,WeatherDisplay:10.37,2013-11-01 04:15:00,
2013-11-01 00:20:00,54.5,22.9,28.38,WNW,294,7.0,12.0,29,0.00,CLR,,0.00,WeatherDisplay:10.37,2013-11-01 04:20:00,
2013-11-01 00:25:00,54.3,22.7,28.38,WNW,295,5.0,8.0,29,0.00,CLR,,0.00,WeatherDisplay:10.37,2013-11-01 04:25:00,
2013-11-01 00:30:00,54.3,23.5,28.38,WNW,283,3.0,13.0,30,0.00,CLR,,0.00,WeatherDisplay:10.37,2013-11-01 04:30:00,
2013-11-01 00:40:00,54.3,23.5,28.38,West,278,9.0,15.0,30,0.00,CLR,,0.00,WeatherDisplay:10.37,2013-11-01 04:40:00,
2013-11-01 00:50:00,54.0,22.4,28.38,West,278,8.0,14.0,29,0.00,CLR,,0.00,WeatherDisplay:10.37,2013-11-01 04:50:00,
2013-11-01 01:00:00,53.4,21.1,28.41,West,267,7.0,15.0,28,0.00,CLR,,0.00,WeatherDisplay:10.37,2013-11-01 05:00:00,
2013-11-01 01:10:00,52.9,19.8,28.41,West,279,8.0,13.0,27,0.00,CLR,,0.00,WeatherDisplay:10.37,2013-11-01 05:10:00,
2013-11-01 01:20:00,52.5,19.5,28.41,West,278,6.0,10.0,27,0.00,CLR,,0.00,WeatherDisplay:10.37,2013-11-01 05:20:00,
2013-11-01 01:25:00,52.5,19.5,28.41,West,276,7.0,15.0,27,0.00,CLR,,0.00,WeatherDisplay:10.37,2013-11-01 05:25:00,
2013-11-01 01:30:00,52.5,19.5,28.41,West,274,8.0,15.0,27,0.00,CLR,,0.00,WeatherDisplay:10.37,2013-11-01 05:30:00,
2013-11-01 01:40:00,52.3,19.3,28.42,West,271,7.0,13.0,27,0.00,CLR,,0.00,WeatherDisplay:10.37,2013-11-01 05:40:00,
2013-11-01 01:45:00,52.0,19.0,28.44,West,274,8.0,11.0,27,0.00,CLR,,0.00,WeatherDisplay:10.37,2013-11-01 05:45:00,
2013-11-01 01:50:00,51.8,18.8,28.44,West,277,7.0,13.0,27,0.00,CLR,,0.00,WeatherDisplay:10.37,2013-11-01 05:50:00,
2013-11-01 02:00:00,51.4,18.5,28.44,West,270,7.0,11.0,27,0.00,CLR,,0.00,WeatherDisplay:10.37,2013-11-01 06:00:00,
2013-11-01 02:05:00,51.4,18.5,28.44,West,267,5.0,13.0,27,0.00,CLR,,0.00,WeatherDisplay:10.37,2013-11-01 06:05:00,
2013-11-01 02:10:00,51.6,18.7,28.45,West,269,8.0,15.0,27,0.00,CLR,,0.00,WeatherDisplay:10.37,2013-11-01 06:10:00,
2013-11-01 02:15:00,51.6,18.7,28.47,West,265,9.0,17.0,27,0.00,CLR,,0.00,WeatherDisplay:10.37,2013-11-01 06:15:00,
2013-11-01 02:20:00,51.4,17.6,28.47,West,268,9.0,17.0,26,0.00,CLR,,0.00,WeatherDisplay:10.37,2013-11-01 06:20:00,
2013-11-01 02:25:00,51.3,17.5,28.47,West,274,8.0,13.0,26,0.00,CLR,,0.00,WeatherDisplay:10.37,2013-11-01 06:25:00,
2013-11-01 02:30:00,51.3,18.4,28.47,West,280,6.0,10.0,27,0.00,CLR,,0.00,WeatherDisplay:10.37,2013-11-01 06:30:00,
2013-11-01 02:35:00,51.1,18.2,28.47,West,281,6.0,12.0,27,0.00,CLR,,0.00,WeatherDisplay:10.37,2013-11-01 06:35:00,
2013-11-01 02:40:00,50.9,18.0,28.47,West,280,8.0,13.0,27,0.00,CLR,,0.00,WeatherDisplay:10.37,2013-11-01 06:40:00,
2013-11-01 02:50:00,50.5,17.7,28.47,WNW,290,7.0,13.0,27,0.00,CLR,,0.00,WeatherDisplay:10.37,2013-11-01 06:50:00,
2013-11-01 03:00:00,50.5,17.7,28.50,West,280,7.0,12.0,27,0.00,CLR,,0.00,WeatherDisplay:10.37,2013-11-01 07:00:00,
2013-11-01 03:05:00,50.5,17.7,28.50,West,270,7.0,17.0,27,0.00,CLR,,0.00,WeatherDisplay:10.37,2013-11-01 07:05:00,
2013-11-01 03:10:00,50.5,17.7,28.50,West,271,8.0,13.0,27,0.00,CLR,,0.00,WeatherDisplay:10.37,2013-11-01 07:10:00,
2013-11-01 03:20:00,50.5,17.7,28.50,WSW,253,8.0,13.0,27,0.00,CLR,,0.00,WeatherDisplay:10.37,2013-11-01 07:20:00,
2013-11-01 03:30:00,50.5,17.7,28.50,West,275,7.0,10.0,27,0.00,CLR,,0.00,WeatherDisplay:10.37,2013-11-01 07:30:00,
2013-11-01 03:40:00,50.4,17.6,28.50,West,278,6.0,12.0,27,0.00,CLR,,0.00,WeatherDisplay:10.37,2013-11-01 07:40:00,
2013-11-01 03:50:00,50.0,16.4,28.50,WNW,288,9.0,15.0,26,0.00,CLR,,0.00,WeatherDisplay:10.37,2013-11-01 07:50:00,
2013-11-01 03:55:00,49.3,14.0,28.50,West,281,9.0,14.0,24,0.00,CLR,,0.00,WeatherDisplay:10.37,2013-11-01 07:55:00,
2013-11-01 04:00:00,49.1,15.6,28.50,West,281,8.0,12.0,26,0.00,CLR,,0.00,WeatherDisplay:10.37,2013-11-01 08:00:00,
2013-11-01 04:05:00,48.9,15.5,28.50,West,281,8.0,13.0,26,0.00,CLR,,0.00,WeatherDisplay:10.37,2013-11-01 08:05:00,
2013-11-01 04:10:00,48.7,13.5,28.50,West,261,12.0,16.0,24,0.00,CLR,,0.00,WeatherDisplay:10.37,2013-11-01 08:10:00,
2013-11-01 04:20:00,48.2,13.0,28.53,WSW,251,12.0,17.0,24,0.00,CLR,,0.00,WeatherDisplay:10.37,2013-11-01 08:20:00,
2013-11-01 04:30:00,48.0,15.6,28.53,WSW,252,10.0,17.0,27,0.00,CLR,,0.00,WeatherDisplay:10.37,2013-11-01 08:30:00,
2013-11-01 04:40:00,47.8,15.4,28.53,WSW,248,8.0,15.0,27,0.00,CLR,,0.00,WeatherDisplay:10.37,2013-11-01 08:40:00,
2013-11-01 04:45:00,47.8,15.4,28.53,West,259,8.0,15.0,27,0.00,CLR,,0.00,WeatherDisplay:10.37,2013-11-01 08:45:00,
2013-11-01 04:50:00,47.5,12.5,28.53,WNW,284,12.0,16.0,24,0.00,CLR,,0.00,WeatherDisplay:10.37,2013-11-01 08:50:00,
2013-11-01 05:00:00,47.5,12.4,28.53,West,271,9.0,20.0,24,0.00,CLR,,0.00,WeatherDisplay:10.37,2013-11-01 09:00:00,
2013-11-01 05:05:00,47.3,12.3,28.53,West,273,9.0,13.0,24,0.00,CLR,,0.00,WeatherDisplay:10.37,2013-11-01 09:05:00,
2013-11-01 05:10:00,47.1,12.1,28.53,West,278,7.0,12.0,24,0.00,CLR,,0.00,WeatherDisplay:10.37,2013-11-01 09:10:00,
2013-11-01 05:20:00,46.6,14.3,28.56,West,277,5.0,10.0,27,0.00,CLR,,0.00,WeatherDisplay:10.37,2013-11-01 09:20:00,
2013-11-01 05:25:00,46.4,14.2,28.56,West,267,7.0,9.0,27,0.00,CLR,,0.00,WeatherDisplay:10.37,2013-11-01 09:25:00,
2013-11-01 05:30:00,46.0,14.7,28.56,WSW,250,7.0,11.0,28,0.00,CLR,,0.00,WeatherDisplay:10.37,2013-11-01 09:30:00,
2013-11-01 05:35:00,45.9,14.5,28.56,WSW,253,6.0,9.0,28,0.00,CLR,,0.00,WeatherDisplay:10.37,2013-11-01 09:35:00,
2013-11-01 05:40:00,45.9,14.5,28.56,WSW,251,7.0,12.0,28,0.00,CLR,,0.00,WeatherDisplay:10.37,2013-11-01 09:40:00,
2013-11-01 05:45:00,45.6,14.3,28.56,WSW,247,7.0,10.0,28,0.00,CLR,,0.00,WeatherDisplay:10.37,2013-11-01 09:45:00,
2013-11-01 05:50:00,45.5,14.2,28.56,WSW,246,7.0,12.0,28,0.00,CLR,,0.00,WeatherDisplay:10.37,2013-11-01 09:50:00,
2013-11-01 06:00:00,45.5,15.0,28.56,WSW,254,7.0,13.0,29,0.00,CLR,,0.00,WeatherDisplay:10.37,2013-11-01 10:00:00,
2013-11-01 06:10:00,45.4,14.1,28.56,WSW,246,7.0,13.0,28,0.00,CLR,,0.00,WeatherDisplay:10.37,2013-11-01 10:10:00,
2013-11-01 06:20:00,45.1,14.7,28.56,WSW,248,8.0,12.0,29,0.00,CLR,,0.00,WeatherDisplay:10.37,2013-11-01 10:20:00,
2013-11-01 06:30:00,45.1,14.7,28.58,WSW,246,6.0,11.0,29,0.00,CLR,,0.00,WeatherDisplay:10.37,2013-11-01 10:30:00,
2013-11-01 06:35:00,45.1,14.7,28.58,WSW,245,7.0,11.0,29,0.00,CLR,,0.00,WeatherDisplay:10.37,2013-11-01 10:35:00,
2013-11-01 06:40:00,45.1,14.7,28.58,WSW,243,8.0,11.0,29,0.00,CLR,,0.00,WeatherDisplay:10.37,2013-11-01 10:40:00,
2013-11-01 06:45:00,45.1,14.7,28.58,SW,235,8.0,13.0,29,0.00,CLR,,0.00,WeatherDisplay:10.37,2013-11-01 10:45:00,
2013-11-01 06:50:00,45.0,14.6,28.58,SW,235,6.0,13.0,29,0.00,CLR,,0.00,WeatherDisplay:10.37,2013-11-01 10:50:00,
2013-11-01 07:00:00,44.8,14.4,28.58,WSW,247,7.0,12.0,29,0.00,CLR,,0.00,WeatherDisplay:10.37,2013-11-01 11:00:00,
2013-11-01 07:05:00,44.8,14.4,28.58,WSW,238,7.0,10.0,29,0.00,CLR,,0.00,WeatherDisplay:10.37,2013-11-01 11:05:00,
2013-11-01 07:10:00,44.9,14.5,28.58,SW,225,7.0,10.0,29,0.00,CLR,,0.00,WeatherDisplay:10.37,2013-11-01 11:10:00,
2013-11-01 07:15:00,45.1,15.5,28.58,SW,227,3.0,8.0,30,0.00,CLR,,0.00,WeatherDisplay:10.37,2013-11-01 11:15:00,
2013-11-01 07:20:00,45.2,15.5,28.58,SW,227,5.0,8.0,30,0.00,CLR,,0.00,WeatherDisplay:10.37,2013-11-01 11:20:00,
2013-11-01 07:30:00,45.5,15.8,28.58,WSW,242,6.0,10.0,30,0.00,CLR,,0.00,WeatherDisplay:10.37,2013-11-01 11:30:00,
2013-11-01 07:35:00,45.5,15.8,28.58,WSW,242,6.0,12.0,30,0.00,CLR,,0.00,WeatherDisplay:10.37,2013-11-01 11:35:00,
2013-11-01 07:40:00,45.7,16.0,28.58,WSW,245,7.0,11.0,30,0.00,CLR,,0.00,WeatherDisplay:10.37,2013-11-01 11:40:00,
2013-11-01 07:50:00,45.9,16.1,28.58,WSW,242,8.0,13.0,30,0.00,CLR,,0.00,WeatherDisplay:10.37,2013-11-01 11:50:00,
2013-11-01 07:55:00,45.9,16.1,28.60,WSW,240,7.0,11.0,30,0.00,CLR,,0.00,WeatherDisplay:10.37,2013-11-01 11:55:00,
2013-11-01 08:05:00,46.0,16.3,28.61,WSW,242,7.0,13.0,30,0.00,CLR,,0.00,WeatherDisplay:10.37,2013-11-01 12:05:00,
2013-11-01 08:10:00,46.1,16.3,28.61,WSW,242,7.0,13.0,30,0.00,CLR,,0.00,WeatherDisplay:10.37,2013-11-01 12:10:00,
2013-11-01 08:20:00,46.4,15.8,28.61,WSW,245,8.0,15.0,29,0.00,CLR,,0.00,WeatherDisplay:10.37,2013-11-01 12:20:00,
2013-11-01 08:30:00,46.6,16.0,28.61,WSW,237,7.0,9.0,29,0.00,CLR,,0.00,WeatherDisplay:10.37,2013-11-01 12:30:00,
2013-11-01 08:35:00,46.6,16.0,28.61,WSW,239,7.0,11.0,29,0.00,CLR,,0.00,WeatherDisplay:10.37,2013-11-01 12:35:00,
2013-11-01 08:40:00,46.8,16.1,28.61,WSW,241,8.0,11.0,29,0.00,CLR,,0.00,WeatherDisplay:10.37,2013-11-01 12:40:00,
2013-11-01 08:50:00,46.9,16.3,28.61,WSW,241,7.0,9.0,29,0.00,CLR,,0.00,WeatherDisplay:10.37,2013-11-01 12:50:00,
2013-11-01 09:00:00,47.1,16.4,28.61,WSW,238,7.0,13.0,29,0.00,CLR,,0.00,WeatherDisplay:10.37,2013-11-01 13:00:00,
2013-11-01 09:05:00,47.1,16.4,28.61,WSW,238,7.0,10.0,29,0.00,CLR,,0.00,WeatherDisplay:10.37,2013-11-01 13:05:00,
2013-11-01 09:10:00,47.1,16.4,28.61,WSW,243,7.0,10.0,29,0.00,CLR,,0.00,WeatherDisplay:10.37,2013-11-01 13:10:00,
2013-11-01 09:20:00,47.3,16.6,28.61,WSW,255,9.0,15.0,29,0.00,CLR,,0.00,WeatherDisplay:10.37,2013-11-01 13:20:00,
2013-11-01 09:30:00,47.3,16.6,28.61,West,261,8.0,15.0,29,0.00,CLR,,0.00,WeatherDisplay:10.37,2013-11-01 13:30:00,
2013-11-01 09:35:00,47.5,16.8,28.61,WSW,254,8.0,12.0,29,0.00,CLR,,0.00,WeatherDisplay:10.37,2013-11-01 13:35:00,
2013-11-01 09:40:00,47.5,16.8,28.62,WSW,243,7.0,10.0,29,0.00,CLR,,0.00,WeatherDisplay:10.37,2013-11-01 13:40:00,
2013-11-01 09:50:00,47.7,16.9,28.64,WSW,250,7.0,13.0,29,0.00,CLR,,0.00,WeatherDisplay:10.37,2013-11-01 13:50:00,
2013-11-01 10:00:00,47.8,17.1,28.64,WSW,246,7.0,9.0,29,0.00,CLR,,0.00,WeatherDisplay:10.37,2013-11-01 14:00:00,
2013-11-01 10:05:00,47.8,16.3,28.64,West,260,6.0,8.0,28,0.00,CLR,,0.00,WeatherDisplay:10.37,2013-11-01 14:05:00,
2013-11-01 10:10:00,48.0,16.4,28.63,WSW,254,7.0,12.0,28,0.00,CLR,,0.00,WeatherDisplay:10.37,2013-11-01 14:10:00,
2013-11-01 10:20:00,48.4,16.7,28.61,WSW,245,6.0,9.0,28,0.00,CLR,,0.00,WeatherDisplay:10.37,2013-11-01 14:20:00,
2013-11-01 10:30:00,48.6,16.9,28.64,WSW,246,7.0,10.0,28,0.00,CLR,,0.00,WeatherDisplay:10.37,2013-11-01 14:30:00,
2013-11-01 10:40:00,48.7,17.0,28.64,WSW,239,6.0,10.0,28,0.00,CLR,,0.00,WeatherDisplay:10.37,2013-11-01 14:40:00,
2013-11-01 10:50:00,49.3,17.5,28.64,SW,235,6.0,8.0,28,0.00,CLR,,0.00,WeatherDisplay:10.37,2013-11-01 14:50:00,
2013-11-01 11:00:00,50.4,17.6,28.64,WSW,244,8.0,10.0,27,0.00,CLR,,0.00,WeatherDisplay:10.37,2013-11-01 15:00:00,
2013-11-01 11:05:00,51.3,18.4,28.64,WSW,241,7.0,12.0,27,0.00,CLR,,0.00,WeatherDisplay:10.37,2013-11-01 15:05:00,
2013-11-01 11:10:00,51.7,17.9,28.64,WSW,240,8.0,12.0,26,0.00,CLR,,0.00,WeatherDisplay:10.37,2013-11-01 15:10:00,
2013-11-01 11:20:00,51.4,15.7,28.64,WSW,243,8.0,13.0,24,0.00,CLR,,0.00,WeatherDisplay:10.37,2013-11-01 15:20:00,
2013-11-01 11:30:00,51.1,15.5,28.64,SW,235,6.0,12.0,24,0.00,CLR,,0.00,WeatherDisplay:10.37,2013-11-01 15:30:00,
2013-11-01 11:40:00,52.8,18.8,28.64,WSW,246,8.0,13.0,26,0.00,CLR,,0.00,WeatherDisplay:10.37,2013-11-01 15:40:00,
2013-11-01 11:50:00,53.2,14.2,28.64,WSW,238,8.0,13.0,21,0.00,CLR,,0.00,WeatherDisplay:10.37,2013-11-01 15:50:00,
2013-11-01 11:55:00,52.5,13.6,28.64,WSW,243,9.0,15.0,21,0.00,CLR,,0.00,WeatherDisplay:10.37,2013-11-01 15:55:00,
2013-11-01 12:00:00,52.3,13.5,28.64,WSW,246,7.0,11.0,21,0.00,CLR,,0.00,WeatherDisplay:10.37,2013-11-01 16:00:00,
2013-11-01 12:05:00,52.3,13.5,28.64,WSW,247,7.0,9.0,21,0.00,CLR,,0.00,WeatherDisplay:10.37,2013-11-01 16:05:00,
2013-11-01 12:10:00,52.3,13.5,28.64,WSW,244,8.0,12.0,21,0.00,CLR,,0.00,WeatherDisplay:10.37,2013-11-01 16:10:00,
2013-11-01 12:20:00,53.4,14.4,28.64,WSW,239,7.0,14.0,21,0.00,CLR,,0.00,WeatherDisplay:10.37,2013-11-01 16:20:00,
2013-11-01 12:30:00,52.4,13.5,28.64,WSW,238,8.0,11.0,21,0.00,CLR,,0.00,WeatherDisplay:10.37,2013-11-01 16:30:00,
2013-11-01 12:40:00,52.3,13.5,28.64,WSW,238,6.0,12.0,21,0.00,CLR,,0.00,WeatherDisplay:10.37,2013-11-01 16:40:00,
2013-11-01 12:50:00,52.3,13.5,28.64,WSW,241,7.0,11.0,21,0.00,CLR,,0.00,WeatherDisplay:10.37,2013-11-01 16:50:00,
2013-11-01 13:00:00,52.5,13.6,28.64,SW,234,7.0,10.0,21,0.00,CLR,,0.00,WeatherDisplay:10.37,2013-11-01 17:00:00,
2013-11-01 13:05:00,52.2,13.4,28.64,SW,236,9.0,13.0,21,0.00,CLR,,0.00,WeatherDisplay:10.37,2013-11-01 17:05:00,
2013-11-01 13:15:00,51.6,12.9,28.64,WSW,246,7.0,10.0,21,0.00,CLR,,0.00,WeatherDisplay:10.37,2013-11-01 17:15:00,
2013-11-01 13:20:00,51.6,12.9,28.64,SW,233,7.0,8.0,21,0.00,CLR,,0.00,WeatherDisplay:10.37,2013-11-01 17:20:00,
2013-11-01 13:25:00,51.8,13.1,28.64,WSW,237,7.0,12.0,21,0.00,CLR,,0.00,WeatherDisplay:10.37,2013-11-01 17:25:00,
2013-11-01 13:30:00,52.0,13.2,28.64,WSW,237,8.0,12.0,21,0.00,CLR,,0.00,WeatherDisplay:10.37,2013-11-01 17:30:00,
2013-11-01 13:40:00,52.2,13.3,28.64,WSW,242,8.0,13.0,21,0.00,CLR,,0.00,WeatherDisplay:10.37,2013-11-01 17:40:00,
2013-11-01 13:50:00,53.1,14.1,28.64,WSW,250,7.0,13.0,21,0.00,CLR,,0.00,WeatherDisplay:10.37,2013-11-01 17:50:00,
2013-11-01 14:00:00,54.1,13.9,28.64,WSW,247,5.0,9.0,20,0.00,CLR,,0.00,WeatherDisplay:10.37,2013-11-01 18:00:00,
2013-11-01 14:05:00,54.1,13.9,28.64,WSW,244,8.0,13.0,20,0.00,CLR,,0.00,WeatherDisplay:10.37,2013-11-01 18:05:00,
2013-11-01 14:10:00,54.1,13.9,28.64,WSW,240,8.0,13.0,20,0.00,CLR,,0.00,WeatherDisplay:10.37,2013-11-01 18:10:00,
2013-11-01 14:20:00,54.1,13.8,28.64,WSW,242,9.0,15.0,20,0.00,CLR,,0.00,WeatherDisplay:10.37,2013-11-01 18:20:00,
2013-11-01 14:30:00,54.5,14.2,28.64,WSW,243,9.0,13.0,20,0.00,CLR,,0.00,WeatherDisplay:10.37,2013-11-01 18:30:00,
2013-11-01 14:40:00,55.2,14.8,28.64,WSW,238,10.0,15.0,20,0.00,CLR,,0.00,WeatherDisplay:10.37,2013-11-01 18:40:00,
2013-11-01 14:45:00,55.2,14.8,28.64,WSW,243,10.0,15.0,20,0.00,CLR,,0.00,WeatherDisplay:10.37,2013-11-01 18:45:00,
2013-11-01 14:50:00,55.0,14.6,28.64,WSW,244,6.0,12.0,20,0.00,CLR,,0.00,WeatherDisplay:10.37,2013-11-01 18:50:00,
2013-11-01 15:00:00,54.6,14.3,28.64,WSW,245,10.0,13.0,20,0.00,CLR,,0.00,WeatherDisplay:10.37,2013-11-01 19:00:00,
2013-11-01 15:10:00,53.2,14.2,28.64,WSW,245,8.0,13.0,21,0.00,CLR,,0.00,WeatherDisplay:10.37,2013-11-01 19:10:00,
2013-11-01 15:20:00,52.7,13.8,28.64,WSW,256,6.0,9.0,21,0.00,CLR,,0.00,WeatherDisplay:10.37,2013-11-01 19:20:00,
2013-11-01 15:25:00,52.5,13.6,28.64,WSW,250,6.0,9.0,21,0.00,CLR,,0.00,WeatherDisplay:10.37,2013-11-01 19:25:00,
2013-11-01 15:30:00,52.3,13.5,28.64,WSW,251,6.0,8.0,21,0.00,CLR,,0.00,WeatherDisplay:10.37,2013-11-01 19:30:00,
2013-11-01 15:35:00,52.3,13.5,28.64,WSW,256,6.0,8.0,21,0.00,CLR,,0.00,WeatherDisplay:10.37,2013-11-01 19:35:00,
2013-11-01 15:40:00,52.2,13.3,28.64,WSW,252,3.0,9.0,21,0.00,CLR,,0.00,WeatherDisplay:10.37,2013-11-01 19:40:00,
2013-11-01 15:45:00,52.2,13.3,28.64,WSW,250,7.0,9.0,21,0.00,CLR,,0.00,WeatherDisplay:10.37,2013-11-01 19:45:00,
2013-11-01 15:50:00,52.2,13.3,28.64,WSW,250,5.0,11.0,21,0.00,CLR,,0.00,WeatherDisplay:10.37,2013-11-01 19:50:00,
2013-11-01 16:00:00,52.2,13.3,28.61,West,261,5.0,12.0,21,0.00,CLR,,0.00,WeatherDisplay:10.37,2013-11-01 20:00:00,
2013-11-01 16:05:00,52.3,13.5,28.61,West,271,5.0,9.0,21,0.00,CLR,,0.00,WeatherDisplay:10.37,2013-11-01 20:05:00,
2013-11-01 16:10:00,52.5,13.6,28.62,WNW,283,5.0,11.0,21,0.00,CLR,,0.00,WeatherDisplay:10.37,2013-11-01 20:10:00,
2013-11-01 16:20:00,52.3,13.5,28.64,West,261,6.0,11.0,21,0.00,CLR,,0.00,WeatherDisplay:10.37,2013-11-01 20:20:00,
2013-11-01 16:30:00,52.2,13.3,28.64,WSW,251,8.0,11.0,21,0.00,CLR,,0.00,WeatherDisplay:10.37,2013-11-01 20:30:00,
2013-11-01 16:35:00,52.3,13.5,28.64,WSW,254,6.0,8.0,21,0.00,CLR,,0.00,WeatherDisplay:10.37,2013-11-01 20:35:00,
2013-11-01 16:40:00,52.3,13.5,28.64,WSW,256,7.0,12.0,21,0.00,CLR,,0.00,WeatherDisplay:10.37,2013-11-01 20:40:00,
2013-11-01 16:45:00,52.2,13.3,28.64,WSW,252,6.0,8.0,21,0.00,CLR,,0.00,WeatherDisplay:10.37,2013-11-01 20:45:00,
2013-11-01 16:50:00,52.2,13.3,28.64,West,265,6.0,10.0,21,0.00,CLR,,0.00,WeatherDisplay:10.37,2013-11-01 20:50:00,
2013-11-01 17:00:00,52.2,13.4,28.67,West,275,5.0,10.0,21,0.00,CLR,,0.00,WeatherDisplay:10.37,2013-11-01 21:00:00,
2013-11-01 17:10:00,52.0,13.2,28.67,WNW,284,5.0,7.0,21,0.00,CLR,,0.00,WeatherDisplay:10.37,2013-11-01 21:10:00,
2013-11-01 17:15:00,51.8,13.0,28.64,WNW,290,5.0,9.0,21,0.00,CLR,,0.00,WeatherDisplay:10.37,2013-11-01 21:15:00,
2013-11-01 17:20:00,51.6,12.9,28.64,WNW,292,5.0,10.0,21,0.00,CLR,,0.00,WeatherDisplay:10.37,2013-11-01 21:20:00,
2013-11-01 17:25:00,51.6,12.9,28.66,WNW,287,3.0,6.0,21,0.00,CLR,,0.00,WeatherDisplay:10.37,2013-11-01 21:25:00,
2013-11-01 17:30:00,51.4,12.7,28.67,West,280,2.0,6.0,21,0.00,CLR,,0.00,WeatherDisplay:10.37,2013-11-01 21:30:00,
2013-11-01 17:40:00,51.3,12.6,28.67,West,267,5.0,6.0,21,0.00,CLR,,0.00,WeatherDisplay:10.37,2013-11-01 21:40:00,
2013-11-01 17:50:00,51.1,12.4,28.67,WNW,286,5.0,6.0,21,0.00,CLR,,0.00,WeatherDisplay:10.37,2013-11-01 21:50:00,
2013-11-01 18:00:00,50.9,12.3,28.67,WNW,297,3.0,4.0,21,0.00,CLR,,0.00,WeatherDisplay:10.37,2013-11-01 22:00:00,
2013-11-01 18:05:00,50.7,12.1,28.67,NW,305,5.0,8.0,21,0.00,CLR,,0.00,WeatherDisplay:10.37,2013-11-01 22:05:00,
2013-11-01 18:10:00,50.5,12.0,28.67,NW,305,3.0,6.0,21,0.00,CLR,,0.00,WeatherDisplay:10.37,2013-11-01 22:10:00,
2013-11-01 18:15:00,50.4,11.8,28.67,WNW,295,3.0,6.0,21,0.00,CLR,,0.00,WeatherDisplay:10.37,2013-11-01 22:15:00,
2013-11-01 18:20:00,50.4,10.7,28.67,WNW,296,3.0,6.0,20,0.00,CLR,,0.00,WeatherDisplay:10.37,2013-11-01 22:20:00,
2013-11-01 18:30:00,50.2,9.4,28.67,WNW,296,3.0,7.0,19,0.00,CLR,,0.00,WeatherDisplay:10.37,2013-11-01 22:30:00,
2013-11-01 18:40:00,50.0,9.3,28.67,WNW,284,2.0,6.0,19,0.00,CLR,,0.00,WeatherDisplay:10.37,2013-11-01 22:40:00,
2013-11-01 18:50:00,49.8,11.3,28.67,WNW,302,3.0,6.0,21,0.00,CLR,,0.00,WeatherDisplay:10.37,2013-11-01 22:50:00,
2013-11-01 19:00:00,49.6,11.2,28.67,WNW,284,1.0,4.0,21,0.00,CLR,,0.00,WeatherDisplay:10.37,2013-11-01 23:00:00,
2013-11-01 19:05:00,49.5,11.1,28.67,WNW,284,0.0,3.0,21,0.00,CLR,,0.00,WeatherDisplay:10.37,2013-11-01 23:05:00,
2013-11-01 19:10:00,49.5,11.1,28.68,WNW,287,0.0,3.0,21,0.00,CLR,,0.00,WeatherDisplay:10.37,2013-11-01 23:10:00,
2013-11-01 19:15:00,49.5,11.1,28.70,WNW,291,0.0,0.0,21,0.00,CLR,,0.00,WeatherDisplay:10.37,2013-11-01 23:15:00,
2013-11-01 19:25:00,49.3,10.9,28.70,WNW,293,0.0,0.0,21,0.00,CLR,,0.00,WeatherDisplay:10.37,2013-11-01 23:25:00,
2013-11-01 19:30:00,49.3,10.9,28.70,WNW,293,0.0,0.0,21,0.00,CLR,,0.00,WeatherDisplay:10.37,2013-11-01 23:30:00,
2013-11-01 19:35:00,49.1,10.8,28.70,WNW,298,0.0,4.0,21,0.00,CLR,,0.00,WeatherDisplay:10.37,2013-11-01 23:35:00,
2013-11-01 19:40:00,49.1,10.8,28.69,NW,317,0.0,4.0,21,0.00,CLR,,0.00,WeatherDisplay:10.37,2013-11-01 23:40:00,
2013-11-01 19:45:00,49.1,10.8,28.67,NNW,328,0.0,3.0,21,0.00,CLR,,0.00,WeatherDisplay:10.37,2013-11-01 23:45:00,
2013-11-01 19:50:00,49.1,10.8,28.67,NNW,327,0.0,3.0,21,0.00,CLR,,0.00,WeatherDisplay:10.37,2013-11-01 23:50:00,
2013-11-01 19:55:00,49.1,10.8,28.68,NW,318,0.0,4.0,21,0.00,CLR,,0.00,WeatherDisplay:10.37,2013-11-01 23:55:00,
2013-11-01 20:00:00,49.1,10.8,28.70,WNW,297,1.0,4.0,21,0.00,CLR,,0.00,WeatherDisplay:10.37,2013-11-02 00:00:00,
2013-11-01 20:05:00,49.1,10.8,28.70,WNW,283,2.0,4.0,21,0.00,CLR,,0.00,WeatherDisplay:10.37,2013-11-02 00:05:00,
2013-11-01 20:10:00,49.1,10.8,28.70,WNW,285,0.0,4.0,21,0.00,CLR,,0.00,WeatherDisplay:10.37,2013-11-02 00:10:00,
2013-11-01 20:20:00,48.9,10.6,28.70,WNW,303,0.0,3.0,21,0.00,CLR,,0.00,WeatherDisplay:10.37,2013-11-02 00:20:00,
2013-11-01 20:30:00,48.7,10.5,28.70,NW,308,1.0,4.0,21,0.00,CLR,,0.00,WeatherDisplay:10.37,2013-11-02 00:30:00,
2013-11-01 20:40:00,48.7,10.5,28.70,NW,315,0.0,3.0,21,0.00,CLR,,0.00,WeatherDisplay:10.37,2013-11-02 00:40:00,
2013-11-01 20:50:00,48.7,13.5,28.70,WNW,290,2.0,5.0,24,0.00,CLR,,0.00,WeatherDisplay:10.37,2013-11-02 00:50:00,
2013-11-01 21:00:00,48.7,10.5,28.70,WNW,295,5.0,6.0,21,0.00,CLR,,0.00,WeatherDisplay:10.37,2013-11-02 01:00:00,
2013-11-01 21:05:00,48.7,10.5,28.70,WNW,286,3.0,7.0,21,0.00,CLR,,0.00,WeatherDisplay:10.37,2013-11-02 01:05:00,
2013-11-01 21:10:00,48.7,10.5,28.70,WNW,288,5.0,8.0,21,0.00,CLR,,0.00,WeatherDisplay:10.37,2013-11-02 01:10:00,
2013-11-01 21:15:00,48.7,10.5,28.70,WNW,303,7.0,11.0,21,0.00,CLR,,0.00,WeatherDisplay:10.37,2013-11-02 01:15:00,
2013-11-01 21:20:00,48.7,10.5,28.70,WNW,297,5.0,9.0,21,0.00,CLR,,0.00,WeatherDisplay:10.37,2013-11-02 01:20:00,
2013-11-01 21:30:00,48.6,10.3,28.70,WNW,293,7.0,9.0,21,0.00,CLR,,0.00,WeatherDisplay:10.37,2013-11-02 01:30:00,
2013-11-01 21:40:00,48.4,10.2,28.71,WNW,288,2.0,6.0,21,0.00,CLR,,0.00,WeatherDisplay:10.37,2013-11-02 01:40:00,
2013-11-01 21:45:00,48.2,10.0,28.73,WNW,284,3.0,6.0,21,0.00,CLR,,0.00,WeatherDisplay:10.37,2013-11-02 01:45:00,
2013-11-01 21:50:00,48.2,10.0,28.73,West,266,1.0,6.0,21,0.00,CLR,,0.00,WeatherDisplay:10.37,2013-11-02 01:50:00,
2013-11-01 21:55:00,48.0,10.9,28.73,West,259,5.0,7.0,22,0.00,CLR,,0.00,WeatherDisplay:10.37,2013-11-02 01:55:00,
2013-11-01 22:05:00,48.0,10.9,28.70,West,264,3.0,8.0,22,0.00,CLR,,0.00,WeatherDisplay:10.37,2013-11-02 02:05:00,
2013-11-01 22:10:00,48.0,10.9,28.72,West,265,3.0,8.0,22,0.00,CLR,,0.00,WeatherDisplay:10.37,2013-11-02 02:10:00,
2013-11-01 22:15:00,47.8,10.8,28.73,WSW,256,5.0,8.0,22,0.00,CLR,,0.00,WeatherDisplay:10.37,2013-11-02 02:15:00,
2013-11-01 22:20:00,47.8,10.8,28.73,West,265,5.0,8.0,22,0.00,CLR,,0.00,WeatherDisplay:10.37,2013-11-02 02:20:00,
2013-11-01 22:30:00,47.8,10.8,28.73,WNW,282,6.0,10.0,22,0.00,CLR,,0.00,WeatherDisplay:10.37,2013-11-02 02:30:00,
2013-11-01 22:40:00,47.7,12.6,28.73,WNW,295,3.0,6.0,24,0.00,CLR,,0.00,WeatherDisplay:10.37,2013-11-02 02:40:00,
2013-11-01 22:50:00,47.5,12.4,28.73,West,279,5.0,8.0,24,0.00,CLR,,0.00,WeatherDisplay:10.37,2013-11-02 02:50:00,
2013-11-01 22:55:00,47.3,12.3,28.73,West,278,5.0,6.0,24,0.00,CLR,,0.00,WeatherDisplay:10.37,2013-11-02 02:55:00,
2013-11-01 23:00:00,47.3,15.0,28.73,West,264,3.0,6.0,27,0.00,CLR,,0.00,WeatherDisplay:10.37,2013-11-02 03:00:00,
2013-11-01 23:05:00,47.3,15.0,28.73,West,274,5.0,6.0,27,0.00,CLR,,0.00,WeatherDisplay:10.37,2013-11-02 03:05:00,
2013-11-01 23:10:00,47.3,15.0,28.73,West,278,1.0,8.0,27,0.00,CLR,,0.00,WeatherDisplay:10.37,2013-11-02 03:10:00,
2013-11-01 23:15:00,47.3,15.0,28.73,West,279,5.0,8.0,27,0.00,CLR,,0.00,WeatherDisplay:10.37,2013-11-02 03:15:00,
2013-11-01 23:20:00,47.3,15.0,28.73,West,280,6.0,10.0,27,0.00,CLR,,0.00,WeatherDisplay:10.37,2013-11-02 03:20:00,
2013-11-01 23:25:00,47.3,15.0,28.73,WNW,293,5.0,10.0,27,0.00,CLR,,0.00,WeatherDisplay:10.37,2013-11-02 03:25:00,
2013-11-01 23:30:00,47.3,15.0,28.73,West,279,6.0,8.0,27,0.00,CLR,,0.00,WeatherDisplay:10.37,2013-11-02 03:30:00,
2013-11-01 23:35:00,47.3,15.0,28.73,West,276,3.0,9.0,27,0.00,CLR,,0.00,WeatherDisplay:10.37,2013-11-02 03:35:00,
2013-11-01 23:40:00,47.3,15.0,28.73,West,280,3.0,6.0,27,0.00,CLR,,0.00,WeatherDisplay:10.37,2013-11-02 03:40:00,
2013-11-01 23:45:00,47.3,15.0,28.73,WNW,284,6.0,9.0,27,0.00,CLR,,0.00,WeatherDisplay:10.37,2013-11-02 03:45:00,
2013-11-01 23:50:00,47.1,14.8,28.73,West,280,3.0,8.0,27,0.00,CLR,,0.00,WeatherDisplay:10.37,2013-11-02 03:50:00,
2013-11-01 23:55:00,47.1,14.8,28.73,WNW,286,5.0,8.0,27,0.00,CLR,,0.00,WeatherDisplay:10.37,2013-11-02 03:55:00,